EW4685 Weather Reports


Display with metric or nautical units.
time (UTC)temp
F
wind
direction
speed
MPH
gust
MPH
rain 1hr
in
rain 24hr
in
rain mn
in
humidity
%
barometer
mb
20260507012504 50 185 3.0 9.0 0.00 0.00 0.00 49 1015.0
20260507012004 50 247 3.0 9.0 0.00 0.00 0.00 47 1015.0
20260507011725 50 267 2.0 12.0 0.00 0.00 0.00 47 1014.8
20260507011004 51 239 1.0 12.0 0.00 0.00 0.00 48 1014.8
20260507010504 50 251 1.0 8.0 0.00 0.00 0.00 47 1014.7
20260507010004 50 210 1.0 8.0 0.00 0.00 0.00 48 1014.5
20260507005723 50 307 2.0 11.0 0.00 0.00 0.00 49 1014.6
20260507004952 49 268 2.0 11.0 0.00 0.00 0.00 49 1014.6
20260507004446 49 259 1.0 10.0 0.00 0.00 0.00 49 1014.6
20260507004202 49 256 1.0 8.0 0.00 0.00 0.00 48 1014.6
20260507003435 49 330 1.0 8.0 0.00 0.00 0.00 49 1014.6
20260507003151 48 197 2.0 11.0 0.00 0.00 0.00 50 1014.6
20260507002423 48 234 3.0 11.0 0.00 0.00 0.00 49 1014.5
20260507001922 47 236 3.0 10.0 0.00 0.00 0.00 49 1014.5
20260507001420 47 235 2.0 10.0 0.00 0.00 0.00 49 1014.7
20260507000921 47 225 1.0 7.0 0.00 0.00 0.00 49 1014.6
20260507000646 47 200 3.0 9.0 0.00 0.00 0.00 51 1014.6
20260506235920 47 234 4.0 17.0 0.00 0.00 0.00 48 1014.6
20260506235642 47 216 4.0 17.0 0.00 0.00 0.00 49 1014.5
20260506234920 47 235 3.0 15.0 0.00 0.00 0.00 50 1014.4
20260506234420 47 234 2.0 9.0 0.00 0.00 0.00 49 1014.5
20260506233920 48 232 3.0 9.0 0.00 0.00 0.00 49 1014.4
20260506233420 48 180 2.0 9.0 0.00 0.00 0.00 49 1014.4
20260506232920 48 199 1.0 9.0 0.00 0.00 0.00 49 1014.2
20260506232421 47 232 1.0 9.0 0.00 0.00 0.00 49 1014.2
20260506231920 47 252 1.0 7.0 0.00 0.00 0.00 50 1014.1
20260506231638 47 230 2.0 8.0 0.00 0.00 0.00 51 1014.2
20260506230918 47 244 2.0 8.0 0.00 0.00 0.00 51 1014.1
20260506230418 46 218 3.0 10.0 0.00 0.00 0.00 50 1014.1
20260506225918 46 234 3.0 14.0 0.00 0.00 0.00 51 1014.1
20260506225419 46 227 2.0 14.0 0.00 0.00 0.00 50 1014.2
20260506225148 46 276 3.0 12.0 0.00 0.00 0.00 51 1014.1
20260506224418 46 265 4.0 15.0 0.00 0.00 0.00 51 1014.0
20260506223918 46 230 3.0 15.0 0.00 0.00 0.00 50 1013.9
20260506223418 47 200 1.0 11.0 0.00 0.00 0.00 50 1013.9
20260506222920 47 300 1.0 5.0 0.00 0.00 0.00 52 1013.8
20260506222418 47 219 0.0 7.0 0.00 0.00 0.00 53 1013.6
20260506221920 46 199 1.0 9.0 0.00 0.00 0.00 53 1013.5
20260506221418 46 220 1.0 9.0 0.00 0.00 0.00 53 1013.2
20260506220919 46 299 0.0 3.0 0.00 0.00 0.00 55 1013.2
20260506220418 45 277 0.0 2.0 0.00 0.00 0.00 59 1013.0
20260506215918 45 316 0.0 4.0 0.00 0.00 0.00 60 1013.0
20260506215641 44 211 1.0 5.0 0.00 0.00 0.00 61 1012.7
20260506214918 44 264 1.0 7.0 0.00 0.00 0.00 62 1012.8
20260506214423 44 318 1.0 7.0 0.00 0.00 0.00 63 1012.6
20260506213916 44 311 1.0 7.0 0.00 0.00 0.00 66 1012.6
20260506213416 44 14 1.0 5.0 0.00 0.00 0.00 68 1012.5
20260506212916 44 204 1.0 5.0 0.00 0.00 0.00 69 1012.4
20260506212416 44 305 1.0 5.0 0.00 0.00 0.00 70 1012.4
20260506212138 44 261 1.0 5.0 0.00 0.00 0.00 71 1012.3
20260506211419 44 283 0.0 3.0 0.00 0.00 0.00 73 1012.1
20260506210914 44 299 0.0 0.0 0.00 0.00 0.00 76 1012.0
20260506210415 45 310 0.0 1.0 0.00 0.00 0.00 76 1011.9
20260506210140 45 251 1.0 5.0 0.00 0.00 0.00 76 1012.0
20260506205639 46 284 1.0 9.0 0.00 0.00 0.00 76 1011.9
20260506204914 46 259 2.0 9.0 0.00 0.00 0.00 75 1011.7
20260506204412 47 203 3.0 11.0 0.00 0.00 0.00 74 1011.8
20260506203911 47 261 4.0 11.0 0.00 0.00 0.00 70 1011.7
20260506203405 48 300 5.0 13.0 0.00 0.00 0.00 71 1011.3
20260506202857 48 253 4.0 15.0 0.00 0.00 0.00 74 1011.3
20260506202356 48 258 3.0 15.0 0.00 0.00 0.00 75 1011.1
20260506202130 48 306 4.0 13.0 0.00 0.00 0.00 75 1010.8
20260506201356 48 249 4.0 13.0 0.00 0.00 0.00 76 1010.7
20260506201111 48 40 4.0 13.0 0.00 0.01 0.00 77 1010.6
20260506200354 48 3 4.0 12.0 0.00 0.01 0.00 78 1010.5
20260506195854 48 287 2.0 12.0 0.00 0.01 0.00 81 1010.7
20260506195353 48 301 1.0 9.0 0.00 0.01 0.00 82 1010.7
20260506194855 47 31 1.0 9.0 0.00 0.01 0.00 84 1010.7
20260506194353 47 315 1.0 9.0 0.00 0.01 0.00 85 1010.9
20260506193853 47 68 1.0 5.0 0.00 0.01 0.00 87 1010.9
20260506193352 47 279 1.0 5.0 0.00 0.01 0.00 88 1010.9
20260506192850 46 12 0.0 4.0 0.00 0.01 0.00 89 1010.9
20260506192350 46 43 0.0 4.0 0.00 0.01 0.00 89 1011.0
20260506191850 46 59 0.0 5.0 0.00 0.01 0.00 89 1011.1
20260506191351 47 5 1.0 7.0 0.00 0.01 0.00 89 1011.2
20260506190847 47 25 1.0 8.0 0.00 0.01 0.00 89 1011.1
20260506190346 47 287 2.0 11.0 0.00 0.01 0.00 89 1011.4
20260506185846 47 56 3.0 11.0 0.00 0.01 0.00 88 1011.4
20260506185338 47 3 3.0 11.0 0.00 0.01 0.00 87 1011.5
20260506184832 47 46 4.0 11.0 0.00 0.01 0.00 87 1011.5
20260506184551 47 29 3.0 9.0 0.00 0.01 0.00 86 1011.5
20260506183821 47 42 3.0 8.0 0.00 0.01 0.00 85 1011.7
20260506183542 47 3 2.0 6.0 0.00 0.01 0.00 84 1011.7
20260506182814 48 358 3.0 8.0 0.00 0.01 0.00 84 1011.9
20260506182528 48 30 2.0 8.0 0.00 0.01 0.00 83 1012.0
20260506181756 48 5 2.0 10.0 0.00 0.01 0.00 82 1012.0
20260506181740 48 0 2.0 10.0 0.00 0.01 0.00 81 1012.0
20260506180746 48 40 2.0 7.0 0.00 0.01 0.00 81 1012.1
20260506180459 48 49 1.0 7.0 0.00 0.01 0.00 80 1012.2
20260506175732 48 38 1.0 5.0 0.00 0.01 0.00 79 1012.2
20260506175226 48 17 0.0 3.0 0.00 0.01 0.00 79 1012.2
20260506174721 48 24 1.0 4.0 0.00 0.01 0.00 78 1012.3
20260506174215 49 321 1.0 4.0 0.00 0.01 0.00 77 1012.4
20260506173712 49 29 1.0 5.0 0.00 0.01 0.00 77 1012.5
20260506173432 49 22 2.0 6.0 0.00 0.01 0.00 76 1012.5
20260506172659 49 269 2.0 8.0 0.00 0.01 0.00 76 1012.6
20260506172153 49 287 3.0 8.0 0.00 0.01 0.00 76 1012.7
20260506171647 49 303 2.0 8.0 0.00 0.01 0.00 75 1012.8
20260506171140 49 30 1.0 6.0 0.00 0.01 0.00 75 1012.9
20260506170634 49 301 2.0 9.0 0.00 0.01 0.00 74 1012.8
20260506170129 49 267 2.0 10.0 0.00 0.01 0.00 75 1012.8
20260506165622 49 291 3.0 12.0 0.00 0.01 0.00 75 1013.0
20260506165354 49 10 3.0 12.0 0.00 0.01 0.00 75 1013.0
20260506164832 49 294 2.0 9.0 0.00 0.01 0.00 75 1013.2
20260506164109 48 273 2.0 9.0 0.00 0.01 0.00 75 1013.2
20260506163558 48 313 1.0 7.0 0.00 0.01 0.00 74 1013.4
20260506163050 48 292 1.0 7.0 0.00 0.01 0.00 74 1013.4
20260506162548 48 53 1.0 4.0 0.00 0.01 0.00 73 1013.5
20260506162040 48 46 1.0 4.0 0.00 0.01 0.00 73 1013.5
20260506161534 48 28 1.0 4.0 0.00 0.01 0.00 73 1013.5
20260506161028 48 70 0.0 2.0 0.00 0.01 0.00 72 1013.5
20260506160522 48 33 0.0 2.0 0.00 0.01 0.00 73 1013.6
20260506160236 48 90 0.0 2.0 0.00 0.01 0.00 72 1013.7
20260506155510 48 46 0.0 0.0 0.00 0.01 0.00 73 1014.0
20260506155003 48 46 0.0 0.0 0.00 0.01 0.00 73 1014.2
20260506154457 48 46 0.0 0.0 0.00 0.01 0.00 71 1014.2
20260506154216 48 46 0.0 2.0 0.00 0.01 0.00 71 1014.2
20260506153445 48 48 1.0 8.0 0.00 0.01 0.00 71 1014.4
20260506152939 48 215 1.0 8.0 0.00 0.01 0.00 71 1014.5
20260506152433 47 304 1.0 8.0 0.00 0.01 0.00 72 1014.5
20260506151927 47 280 1.0 8.0 0.00 0.01 0.00 73 1014.4
20260506151641 47 312 1.0 6.0 0.00 0.01 0.00 74 1014.4
20260506151138 47 315 1.0 8.0 0.00 0.01 0.00 74 1014.4
20260506150419 47 48 1.0 8.0 0.00 0.01 0.00 74 1014.4
20260506145918 47 33 1.0 8.0 0.00 0.01 0.00 74 1014.4
20260506145416 47 31 0.0 2.0 0.00 0.01 0.00 75 1014.5
20260506144915 47 54 0.0 0.0 0.00 0.01 0.00 74 1014.5
20260506144416 47 297 1.0 8.0 0.00 0.01 0.00 74 1014.5
20260506143913 46 303 1.0 8.0 0.00 0.01 0.00 76 1014.6
20260506143855 46 257 0.0 0.0 0.00 0.01 0.00 78 1014.7
20260506142910 46 257 0.0 1.0 0.00 0.01 0.00 78 1014.5
20260506142407 46 50 0.0 2.0 0.00 0.01 0.00 80 1014.6
20260506141906 46 293 0.0 2.0 0.00 0.01 0.00 80 1014.7
20260506141406 46 59 0.0 4.0 0.00 0.01 0.00 80 1014.6
20260506140905 46 355 0.0 4.0 0.00 0.01 0.00 79 1014.7
20260506140403 47 317 0.0 3.0 0.00 0.01 0.00 79 1014.8
20260506135901 47 317 0.0 3.0 0.00 0.01 0.01 78 1015.0
20260506135400 47 268 0.0 3.0 0.00 0.01 0.01 78 1014.8
20260506134901 47 344 0.0 5.0 0.00 0.01 0.01 78 1014.7
20260506134359 47 293 1.0 5.0 0.00 0.01 0.01 79 1014.8
20260506133858 47 12 1.0 5.0 0.00 0.01 0.01 79 1014.8
20260506133620 47 32 1.0 4.0 0.00 0.01 0.01 79 1015.0
20260506132940 48 42 1.0 6.0 0.00 0.01 0.01 79 1015.1
20260506132101 48 3 1.0 6.0 0.00 0.01 0.01 79 1015.0
20260506131557 48 40 1.0 6.0 0.00 0.01 0.01 79 1015.0
20260506130831 48 13 1.0 6.0 0.00 0.01 0.01 79 1015.2
20260506130325 48 315 1.0 6.0 0.00 0.01 0.01 79 1015.1
20260506125819 49 17 1.0 6.0 0.00 0.01 0.01 78 1015.1
20260506125314 48 12 1.0 6.0 0.00 0.01 0.01 79 1015.2
20260506124807 49 31 1.0 6.0 0.00 0.01 0.01 79 1015.2
20260506124301 49 28 1.0 8.0 0.00 0.01 0.01 79 1015.4
20260506123755 49 24 1.0 8.0 0.00 0.01 0.01 79 1015.4
20260506123251 49 353 1.0 6.0 0.00 0.01 0.01 80 1015.5
20260506122743 48 36 1.0 5.0 0.00 0.01 0.01 81 1015.6
20260506122456 48 310 1.0 5.0 0.00 0.01 0.01 81 1015.6
20260506121731 48 36 1.0 5.0 0.00 0.01 0.01 82 1015.6
20260506121225 48 344 1.0 4.0 0.00 0.01 0.01 82 1015.7
20260506120724 48 24 1.0 4.0 0.00 0.01 0.01 82 1015.7
20260506120214 48 353 1.0 5.0 0.00 0.01 0.01 82 1015.7
20260506115714 48 313 1.0 6.0 0.00 0.01 0.01 82 1015.7
20260506115436 48 321 2.0 6.0 0.00 0.01 0.01 83 1015.7
20260506114705 48 35 1.0 5.0 0.00 0.01 0.01 83 1015.5
20260506114203 48 30 1.0 3.0 0.00 0.01 0.01 82 1015.7
20260506113702 48 32 2.0 4.0 0.00 0.01 0.01 82 1015.8
20260506113201 48 23 2.0 4.0 0.00 0.01 0.01 83 1015.8
20260506112701 48 10 1.0 4.0 0.00 0.01 0.01 82 1015.8
20260506112202 49 30 1.0 7.0 0.00 0.01 0.01 82 1015.8
20260506111701 49 30 1.0 7.0 0.00 0.01 0.01 82 1015.9
20260506111421 49 9 1.0 7.0 0.00 0.01 0.01 82 1015.9
20260506110920 49 52 1.0 7.0 0.00 0.01 0.01 82 1016.0
20260506110159 49 56 1.0 5.0 0.00 0.01 0.01 82 1016.0
20260506105659 49 26 1.0 5.0 0.00 0.01 0.01 82 1015.9
20260506105159 49 50 1.0 4.0 0.00 0.01 0.01 82 1015.9
20260506104659 49 28 2.0 7.0 0.00 0.01 0.01 82 1016.0
20260506104159 49 5 2.0 7.0 0.00 0.01 0.01 82 1016.0
20260506103659 49 26 1.0 6.0 0.00 0.01 0.01 82 1016.0
20260506103159 49 340 2.0 6.0 0.00 0.01 0.01 82 1016.0
20260506102653 49 314 2.0 5.0 0.00 0.01 0.01 82 1016.1
20260506102148 49 33 2.0 6.0 0.00 0.01 0.01 81 1016.1
20260506101647 50 32 2.0 6.0 0.00 0.01 0.01 82 1016.1
20260506101147 49 36 1.0 7.0 0.00 0.01 0.01 82 1016.1
20260506100647 49 62 1.0 7.0 0.00 0.01 0.01 82 1016.2
20260506100148 49 16 1.0 4.0 0.00 0.01 0.01 83 1016.1
20260506095647 49 31 2.0 5.0 0.00 0.01 0.01 83 1016.1
20260506095146 50 314 2.0 5.0 0.00 0.01 0.01 83 1016.1
20260506094646 50 19 2.0 5.0 0.00 0.01 0.01 83 1016.1
20260506094413 50 335 1.0 5.0 0.00 0.01 0.01 83 1016.1
20260506093645 50 31 1.0 5.0 0.00 0.01 0.01 82 1016.1
20260506093630 50 57 2.0 6.0 0.00 0.01 0.01 82 1016.1
20260506092646 50 22 3.0 6.0 0.00 0.01 0.01 82 1016.1
20260506092146 50 69 2.0 6.0 0.00 0.01 0.01 82 1016.2
20260506091650 51 348 1.0 4.0 0.00 0.01 0.01 82 1016.2
20260506091148 51 68 1.0 4.0 0.00 0.01 0.01 82 1016.2
20260506090908 51 42 1.0 4.0 0.00 0.01 0.01 82 1016.2
20260506090142 51 51 2.0 7.0 0.00 0.01 0.01 81 1016.2
20260506085640 51 33 2.0 7.0 0.00 0.01 0.01 81 1016.2
20260506085142 51 53 2.0 6.0 0.00 0.01 0.01 81 1016.2
20260506084641 51 55 2.0 6.0 0.00 0.01 0.01 81 1016.3
20260506084141 51 10 1.0 5.0 0.00 0.01 0.01 81 1016.2
20260506083641 52 19 1.0 6.0 0.00 0.01 0.01 80 1016.3
20260506083141 52 33 1.0 6.0 0.00 0.01 0.01 79 1016.3
20260506082641 52 12 2.0 6.0 0.00 0.01 0.01 78 1016.3
20260506082136 53 351 3.0 11.0 0.00 0.01 0.01 78 1016.3
20260506081637 53 55 3.0 11.0 0.00 0.01 0.01 78 1016.3
20260506081136 53 54 1.0 5.0 0.00 0.01 0.01 77 1016.3
20260506080637 53 52 1.0 7.0 0.00 0.01 0.01 77 1016.2
20260506080402 53 48 1.0 7.0 0.00 0.01 0.01 76 1016.3
20260506073137 55 22 2.0 5.0 0.00 0.01 0.01 72 1016.1
20260506072638 55 29 1.0 5.0 0.00 0.01 0.01 71 1016.1
20260506072137 55 49 1.0 8.0 0.00 0.01 0.01 70 1016.1
20260506071637 56 8 2.0 8.0 0.00 0.01 0.01 69 1016.0
20260506071135 56 18 2.0 7.0 0.00 0.01 0.01 68 1016.1
20260506070634 56 28 1.0 6.0 0.00 0.01 0.01 67 1016.0
20260506070134 56 326 1.0 8.0 0.00 0.01 0.01 67 1016.0
20260506062127 59 356 2.0 9.0 0.00 0.01 0.01 64 1016.1
20260506061625 60 10 2.0 8.0 0.00 0.01 0.01 63 1016.1
20260506061349 60 284 2.0 12.0 0.00 0.01 0.01 63 1016.1
20260506060625 60 286 3.0 12.0 0.00 0.01 0.01 63 1016.1
20260506060351 60 319 2.0 8.0 0.00 0.01 0.01 62 1016.1
20260506051105 61 302 2.0 8.0 0.00 0.01 0.01 57 1016.4
20260506050558 62 287 2.0 8.0 0.00 0.01 0.01 57 1016.5
20260506045039 62 280 1.0 6.0 0.00 0.01 0.01 56 1016.5
20260506044534 61 307 2.0 6.0 0.00 0.01 0.01 57 1016.8
20260506044028 62 263 2.0 7.0 0.00 0.01 0.01 54 1016.8
20260506043521 61 313 2.0 8.0 0.00 0.01 0.01 54 1016.7
20260506043237 62 294 1.0 8.0 0.00 0.01 0.01 54 1016.7
20260506042510 61 29 2.0 8.0 0.00 0.01 0.01 53 1016.9
20260506042005 61 64 2.0 8.0 0.00 0.01 0.01 51 1016.9
20260506041459 62 350 2.0 9.0 0.00 0.01 0.01 51 1016.9
20260506040952 62 318 1.0 9.0 0.00 0.01 0.01 50 1017.0
20260506040446 62 18 1.0 8.0 0.00 0.01 0.01 50 1017.1
20260506035940 62 289 1.0 8.0 0.00 0.01 0.01 48 1017.1
20260506035434 62 337 1.0 7.0 0.00 0.01 0.01 51 1017.2
20260506034927 62 10 2.0 7.0 0.00 0.01 0.01 50 1017.2
20260506034421 62 62 2.0 7.0 0.00 0.01 0.01 46 1017.3
20260506033916 61 12 3.0 8.0 0.00 0.01 0.01 46 1017.4
20260506033410 61 46 2.0 8.0 0.00 0.01 0.01 47 1017.5
20260506032905 61 320 2.0 10.0 0.00 0.01 0.01 48 1017.5
20260506032357 61 300 2.0 10.0 0.00 0.01 0.01 48 1017.6
20260506031852 61 53 2.0 8.0 0.00 0.01 0.01 51 1017.7
20260506031347 61 28 3.0 9.0 0.00 0.01 0.01 53 1017.7
20260506030841 61 354 3.0 9.0 0.00 0.01 0.01 53 1017.9
20260506030334 61 6 2.0 9.0 0.00 0.01 0.01 55 1018.0
20260506025828 61 40 2.0 10.0 0.00 0.01 0.01 57 1018.1
20260506025327 61 66 2.0 10.0 0.00 0.01 0.01 57 1018.1
20260506024816 61 305 2.0 8.0 0.00 0.01 0.01 58 1018.2
20260506024310 61 269 1.0 8.0 0.00 0.01 0.01 58 1018.5
20260506023804 61 296 2.0 8.0 0.00 0.01 0.01 59 1018.5
20260506023519 60 82 2.0 9.0 0.00 0.01 0.01 59 1018.6
20260506022751 61 46 2.0 9.0 0.00 0.01 0.01 58 1018.7
20260506022246 61 342 1.0 7.0 0.00 0.01 0.01 61 1018.7
20260506022232 60 43 2.0 7.0 0.00 0.01 0.01 61 1018.9
20260506021233 60 343 2.0 6.0 0.00 0.01 0.01 60 1019.1
20260506020728 60 74 1.0 5.0 0.00 0.01 0.01 61 1019.2
20260506020222 60 282 2.0 7.0 0.00 0.01 0.01 60 1019.3
20260506015717 60 327 2.0 7.0 0.00 0.01 0.01 61 1019.4
20260506015210 60 322 1.0 6.0 0.00 0.01 0.01 62 1019.5
20260506014711 60 66 1.0 6.0 0.00 0.01 0.01 62 1019.5
20260506014208 60 61 1.0 4.0 0.00 0.01 0.01 62 1019.6
20260506013936 59 319 2.0 6.0 0.00 0.01 0.01 63 1019.8
20260506013208 59 318 2.0 6.0 0.00 0.01 0.01 63 1019.8